Tracking 18840 objects as of 18-November-2017
HD Live streaming from Space Station
objects crossing your sky now

COSMOS 412

Track COSMOS 412 now!
10-day predictions
COSMOS 412 is classified as:


NORAD ID: 5211
Int'l Code: 1971-041B
Perigee: 1,486.9 km
Apogee: 1,541.9 km
Inclination: 74.0 °
Period: 116.1 minutes
Semi major axis: 7885 km
RCS: 0.7281 m2 (medium)
Launch date: May 7, 1971
Source: Commonwealth of Independent States (former USSR) (CIS)
Launch site: PLESETSK MISSILE AND SPACE COMPLEX (PKMTR)
aabbcc
Your satellite tracking list
Your tracking list is empty




NASA's NSSDC Master Catalog

Two Line Element Set (TLE):
1  5211U 71041B   17321.95999067 -.00000010 +00000-0 +43375-4 0  9998
2  5211 074.0160 232.7974 0034870 028.0504 048.9461 12.39841034345216
Source of the keplerian elements: AFSPC